Location: Newark
(13.3167°N, 169.1500°W)
Time: 22:14:09
(UTC+00:00)

OTV 5 (USA 277) - Visible Passes

Search period start: 20 September 2019 00:00
Search period end: 30 September 2019 00:00
Orbit: 295 x 339 km, 54.5° (Epoch: 08 September)

Date Brightness Start Highest point End Pass type
(mag) Time Alt. Az. Time Alt. Az. Time Alt. Az.
20 Sep ? 06:12:28 10° WNW 06:14:39 26° WSW 06:16:51 10° S visible
26 Sep ? 15:57:23 10° SSE 15:59:26 18° ESE 16:01:29 10° ENE visible
27 Sep ? 16:11:54 18° SW 16:13:53 87° NW 16:16:42 10° NNE visible
28 Sep ? 16:27:28 16° W 16:28:24 18° NW 16:30:26 10° N visible
